Weather in Krasnogorskoe

Russia / Udmurt Republic     57°42′11″N   52°30′04″E
temp.,
°C
wind,
m/s
gust,
m/s
humid.,
%
clouds,
%
prec.,
mm/h
press.,
hPa
HPBL,
m
7 march, sun
sun701:00−17wsw229885 0.1 101121
04:00−18sw229985 0.1 101020
07:00−17sw229898 0.1 101046
10:00−14sw239396 0.1 1009244
13:00−11wsw2384100 0.1 1008633
16:00−10sw3484100 0.1 1007706
19:00−14sse3496100 0.1 100649
22:00−14s499598 0.1 1005249
8 march, mon
mon801:00−13sse51095100 0.1 1001341
04:00−12sse51194100 0.5 999488
07:00−12se51193100 0.5 996512
10:00−10se61092100 0.8 994529
13:00−7ese6993100 0.8 992610
16:00−7nne3595100 2.7 993339
19:00−8n2396100 1.1 995116
22:00−10nnw2296100 2.3 99752
9 march, tue
tue901:00−12nnw2396100 0.1 99928
04:00−15nnw339697 0.2 100264
07:00−18nw349870 0.0 100452
10:00−15nnw249362 0.0 1007235
13:00−12nw238698 0.0 1009492
16:00−11nw238599 0.1 1010602
19:00−14nnw2296100 0.1 101135
22:00−15nne489599 0.3 1012292
10 march, wed
wed1001:00−17ne599596 0.1 1013337
04:00−21nne599697 0.3 1014297
07:00−26nne599497 0.0 1015239
10:00−25nne6109088 0.0 1016333
13:00−20n6108311 0.0 1016540
16:00−18n69815 0.0 1016762
19:00−22nnw5119261 0.0 1017241
22:00−24nnw499831 0.0 1018167
11 march, thu
thu1101:00−26nnw45990 0.0 101897
04:00−26wnw349910 0.0 101975
07:00−23wnw379890 0.0 1018206
10:00−19wnw479695 0.3 1018313
13:00−13wnw5793100 0.4 1017501
16:00−8wnw5990100 0.7 1018717
19:00−8nw51194100 0.2 1019504
22:00−12nw51289100 0.3 1021345